When you browse on this site, cookies collect data to enhance your experience and personalize the content and advertising you see.
Visit our Privacy Policy to learn more. By continuing to use the site, you agree to this use of cookies and data.
  • In Netherlands
  • List of Countries
  • For 7 days
  • Water Temperature
  • Weather Map
  • Weather Widgets
  • user-avatar
    Login

    Hourly Weather Tarija

    Today, 20 September, Friday

    Time Temperature Precipitation Wind Pressure Humidity
    00:00 +16°C° 0 mm 2 mps 596 mmHg 60%
    01:00 +15°C° 0 mm 2 mps 596 mmHg 61%
    02:00 +14°C° 0 mm 2 mps 596 mmHg 62%
    03:00 +13°C° 0 mm 1 mps 596 mmHg 68%
    04:00 +12°C° 0 mm 1 mps 596 mmHg 74%
    05:00 +11°C° 0 mm 1 mps 596 mmHg 80%
    06:00 +12°C° 0 mm 1 mps 597 mmHg 76%
    07:00 +13°C° 0 mm 1 mps 598 mmHg 72%
    08:00 +14°C° 0 mm 1 mps 598 mmHg 68%
    09:00 +16°C° 0 mm 2 mps 599 mmHg 59%
    10:00 +18°C° 0 mm 2 mps 599 mmHg 50%
    11:00 +20°C° 0 mm 3 mps 600 mmHg 41%
    12:00 +21°C° 0 mm 4 mps 599 mmHg 37%
    13:00 +22°C° 0 mm 5 mps 599 mmHg 33%
    14:00 +24°C° 0 mm 6 mps 599 mmHg 29%
    15:00 +22°C° 0 mm 5 mps 598 mmHg 33%
    16:00 +21°C° 0 mm 5 mps 597 mmHg 36%
    17:00 +20°C° 0 mm 5 mps 597 mmHg 40%
    18:00 +18°C° 0 mm 4 mps 597 mmHg 45%
    19:00 +14°C° 0 mm 3 mps 597 mmHg 50%
    20:00 +13°C° 0 mm 2 mps 597 mmHg 55%
    21:00 +13°C° 0 mm 1 mps 597 mmHg 56%
    22:00 +12°C° 0 mm 1 mps 597 mmHg 58%
    23:00 +11°C° 0 mm 1 mps 597 mmHg 59%

    Tomorrow, 21 September, Saturday

    Time Temperature Precipitation Wind Pressure Humidity
    00:00 +11°C° 0 mm 1 mps 597 mmHg 60%
    01:00 +11°C° 0 mm 1 mps 597 mmHg 61%
    02:00 +10°C° 0 mm 1 mps 597 mmHg 62%
    03:00 +10°C° 0 mm 1 mps 597 mmHg 64%
    04:00 +10°C° 0 mm 1 mps 597 mmHg 66%
    05:00 +9°C° 0 mm 1 mps 597 mmHg 68%
    06:00 +10°C° 0 mm 1 mps 597 mmHg 63%
    07:00 +12°C° 0 mm 1 mps 598 mmHg 59%
    08:00 +13°C° 0 mm 1 mps 599 mmHg 54%
    09:00 +15°C° 0 mm 2 mps 599 mmHg 49%
    10:00 +17°C° 0 mm 2 mps 600 mmHg 43%
    11:00 +19°C° 0 mm 2 mps 600 mmHg 37%
    12:00 +20°C° 0 mm 2 mps 600 mmHg 34%
    13:00 +21°C° 0 mm 3 mps 600 mmHg 32%
    14:00 +22°C° 0 mm 3 mps 599 mmHg 29%
    15:00 +21°C° 0 mm 3 mps 599 mmHg 32%
    16:00 +21°C° 0 mm 3 mps 598 mmHg 34%
    17:00 +20°C° 0 mm 3 mps 597 mmHg 36%
    18:00 +18°C° 0 mm 3 mps 598 mmHg 42%
    19:00 +16°C° 0 mm 2 mps 598 mmHg 48%
    20:00 +15°C° 0 mm 1 mps 598 mmHg 55%
    21:00 +14°C° 0 mm 1 mps 598 mmHg 57%
    22:00 +13°C° 0 mm 0 mps 598 mmHg 60%
    23:00 +12°C° 0 mm 0 mps 599 mmHg 62%

    Day after tomorrow, 22 September, Sunday

    Time Temperature Precipitation Wind Pressure Humidity
    00:00 +12°C° 0 mm 0 mps 598 mmHg 64%
    01:00 +11°C° 0 mm 0 mps 598 mmHg 66%
    02:00 +11°C° 0 mm 0 mps 598 mmHg 68%
    03:00 +11°C° 0 mm 0 mps 598 mmHg 70%
    04:00 +10°C° 0 mm 0 mps 598 mmHg 72%
    05:00 +10°C° 0 mm 0 mps 598 mmHg 74%
    06:00 +11°C° 0 mm 0 mps 599 mmHg 69%
    07:00 +12°C° 0 mm 0 mps 600 mmHg 64%
    08:00 +13°C° 0 mm 0 mps 600 mmHg 60%
    09:00 +16°C° 0 mm 1 mps 601 mmHg 54%
    10:00 +19°C° 0 mm 1 mps 601 mmHg 48%
    11:00 +20°C° 0 mm 2 mps 602 mmHg 43%
    12:00 +21°C° 0 mm 2 mps 601 mmHg 40%
    13:00 +22°C° 0 mm 3 mps 601 mmHg 38%
    14:00 +23°C° 0 mm 4 mps 601 mmHg 35%
    15:00 +22°C° 0 mm 4 mps 600 mmHg 37%
    16:00 +22°C° 0 mm 4 mps 599 mmHg 40%
    17:00 +21°C° 0 mm 4 mps 599 mmHg 42%
    18:00 +19°C° 0 mm 3 mps 599 mmHg 47%
    19:00 +18°C° 0 mm 2 mps 599 mmHg 51%
    20:00 +16°C° 0 mm 1 mps 599 mmHg 56%
    21:00 +16°C° 0 mm 1 mps 599 mmHg 58%
    22:00 +15°C° 0 mm 1 mps 599 mmHg 60%
    23:00 +15°C° 0 mm 1 mps 599 mmHg 62%

    23 September, Monday

    Time Temperature Precipitation Wind Pressure Humidity
    00:00 +15°C° 0 mm 1 mps 599 mmHg 63%
    01:00 +14°C° 0 mm 1 mps 598 mmHg 64%
    02:00 +14°C° 0 mm 2 mps 598 mmHg 65%
    03:00 +14°C° 0 mm 2 mps 598 mmHg 66%
    04:00 +14°C° 0 mm 2 mps 598 mmHg 67%
    05:00 +14°C° 0 mm 2 mps 597 mmHg 67%
    06:00 +16°C° 0 mm 1 mps 598 mmHg 61%
    07:00 +18°C° 0 mm 1 mps 599 mmHg 56%
    08:00 +20°C° 0 mm 1 mps 600 mmHg 50%
    09:00 +21°C° 0 mm 2 mps 600 mmHg 44%
    10:00 +24°C° 0 mm 2 mps 601 mmHg 39%
    11:00 +26°C° 0 mm 2 mps 601 mmHg 33%
    12:00 +27°C° 0 mm 3 mps 601 mmHg 32%
    13:00 +28°C° 0 mm 3 mps 600 mmHg 30%
    14:00 +29°C° 0 mm 4 mps 600 mmHg 29%
    15:00 +28°C° 0 mm 4 mps 600 mmHg 32%
    16:00 +27°C° 0 mm 5 mps 599 mmHg 35%
    17:00 +26°C° 0 mm 5 mps 599 mmHg 38%
    18:00 +23°C° 0 mm 4 mps 599 mmHg 42%
    19:00 +21°C° 0 mm 3 mps 600 mmHg 47%
    20:00 +19°C° 0 mm 3 mps 600 mmHg 52%
    21:00 +19°C° 0 mm 2 mps 601 mmHg 52%
    22:00 +19°C° 0 mm 2 mps 602 mmHg 52%
    23:00 +19°C° 0 mm 1 mps 602 mmHg 52%

    24 September, Tuesday

    Time Temperature Precipitation Wind Pressure Humidity
    00:00 +19°C° 0 mm 1 mps 602 mmHg 54%
    01:00 +18°C° 0 mm 1 mps 602 mmHg 55%
    02:00 +16°C° 0 mm 1 mps 602 mmHg 57%
    03:00 +15°C° 0 mm 1 mps 601 mmHg 59%
    04:00 +15°C° 0 mm 1 mps 601 mmHg 62%
    05:00 +14°C° 0 mm 1 mps 601 mmHg 64%
    06:00 +14°C° 0 mm 1 mps 601 mmHg 63%
    07:00 +14°C° 0 mm 1 mps 602 mmHg 61%
    08:00 +15°C° 0 mm 1 mps 602 mmHg 59%
    09:00 +16°C° 0 mm 2 mps 602 mmHg 54%
    10:00 +18°C° 0 mm 2 mps 602 mmHg 49%
    11:00 +20°C° 0 mm 2 mps 603 mmHg 45%
    12:00 +20°C° 0 mm 3 mps 602 mmHg 42%
    13:00 +21°C° 0 mm 3 mps 602 mmHg 40%
    14:00 +22°C° 0 mm 4 mps 601 mmHg 38%
    15:00 +22°C° 0.1 mm 4 mps 601 mmHg 39%
    16:00 +21°C° 0.1 mm 5 mps 600 mmHg 41%
    17:00 +20°C° 0.1 mm 5 mps 600 mmHg 43%
    18:00 +18°C° 0.4 mm 4 mps 600 mmHg 49%
    19:00 +17°C° 0.4 mm 3 mps 600 mmHg 55%
    20:00 +15°C° 0.4 mm 2 mps 600 mmHg 60%
    21:00 +15°C° 0.1 mm 2 mps 600 mmHg 62%
    22:00 +14°C° 0.1 mm 1 mps 600 mmHg 64%
    23:00 +13°C° 0.1 mm 1 mps 600 mmHg 66%

    25 September, Wednesday

    Time Temperature Precipitation Wind Pressure Humidity
    00:00 +13°C° 0 mm 1 mps 600 mmHg 66%
    01:00 +12°C° 0 mm 0 mps 600 mmHg 67%
    02:00 +11°C° 0 mm 0 mps 599 mmHg 68%
    03:00 +11°C° 0 mm 0 mps 599 mmHg 68%
    04:00 +10°C° 0 mm 0 mps 599 mmHg 69%
    05:00 +10°C° 0 mm 0 mps 599 mmHg 70%
    06:00 +11°C° 0 mm 0 mps 599 mmHg 65%
    07:00 +11°C° 0 mm 0 mps 600 mmHg 60%
    08:00 +12°C° 0 mm 0 mps 601 mmHg 55%
    09:00 +15°C° 0 mm 1 mps 601 mmHg 51%
    10:00 +18°C° 0 mm 1 mps 601 mmHg 46%
    11:00 +18°C° 0 mm 2 mps 602 mmHg 41%
    12:00 +19°C° 0 mm 2 mps 601 mmHg 39%
    13:00 +20°C° 0 mm 3 mps 601 mmHg 37%
    14:00 +21°C° 0 mm 3 mps 600 mmHg 35%
    15:00 +21°C° 0 mm 4 mps 600 mmHg 35%
    16:00 +20°C° 0 mm 4 mps 599 mmHg 35%
    17:00 +20°C° 0 mm 4 mps 599 mmHg 36%
    18:00 +18°C° 0 mm 3 mps 599 mmHg 40%
    19:00 +17°C° 0 mm 2 mps 599 mmHg 44%
    20:00 +15°C° 0 mm 1 mps 599 mmHg 48%
    21:00 +15°C° 0 mm 1 mps 599 mmHg 50%
    22:00 +14°C° 0 mm 1 mps 600 mmHg 51%
    23:00 +13°C° 0 mm 0 mps 600 mmHg 53%
    Show more